This demonstration page uses our WeatherBlox Daily Observations layout. Learn more.

Hourly Observations for September 30, 2019

Temp ( °F °C ) Dew Point ( °F °C ) Humidity (%) Winds ( mph kmh ) Pressure ( in mb ) Visibility ( mi km ) Precip ( " mm )
12:15 am 00:15 Clear 76 24.5 69 20.5 78 78 S 20 31 29.64 1004 10 16.0934 0 0
12:35 am 00:35 Clear 76 24.3 69 20.5 79 79 S 16 26 29.64 1004 10 16.0934 0 0
12:55 am 00:55 Clear 76 24.2 69 20.3 79 79 S 17 28 29.65 1004 10 16.0934 0 0
1:15 am 01:15 Clear 76 24.3 68 20.2 78 78 S 15 24 29.65 1004 10 16.0934 0 0
1:35 am 01:35 Clear 75 24 68 20.1 79 79 S 14 22 29.66 1004 10 16.0934 0 0
1:55 am 01:55 Clear 75 23.8 68 20 79 79 S 17 28 29.66 1004 10 16.0934 0 0
2:15 am 02:15 Clear 74 23.5 68 20.1 81 81 S 16 26 29.67 1005 10 16.0934 0 0
2:35 am 02:35 Clear 74 23.5 68 20.1 81 81 S 16 26 29.67 1005 10 16.0934 0 0
2:55 am 02:55 Clear 74 23.1 68 20 83 83 S 17 28 29.67 1005 10 16.0934 0 0
3:15 am 03:15 Clear 73 23 68 20 83 83 S 16 26 29.66 1005 10 16.0934 0 0
3:35 am 03:35 Clear 73 23 68 20 83 83 S 16 26 29.65 1004 10 16.0934 0 0
3:55 am 03:55 Clear 73 22.9 68 20 84 84 S 17 28 29.65 1004 10 16.0934 0 0
4:15 am 04:15 Clear 73 22.6 68 20 85 85 S 17 28 29.65 1004 10 16.0934 0 0
4:35 am 04:35 Clear 73 22.5 68 20 86 86 S 18 30 29.65 1004 10 16.0934 0 0
4:55 am 04:55 Clear 73 22.6 68 19.9 85 85 S 15 24 29.65 1004 10 16.0934 0 0
5:15 am 05:15 Clear 73 22.7 68 19.8 84 84 S 16 26 29.66 1004 10 16.0934 0 0
5:35 am 05:35 Clear 73 22.7 68 19.8 84 84 S 17 28 29.65 1004 10 16.0934 0 0
5:55 am 05:55 Clear 73 23 67 19.7 82 82 S 16 26 29.64 1004 10 16.0934 0 0
6:15 am 06:15 Clear 74 23.2 67 19.6 80 80 S 21 33 29.64 1004 10 16.0934 0 0
6:35 am 06:35 Clear 73 22.8 67 19.6 82 82 S 21 33 29.65 1004 10 16.0934 0 0
6:55 am 06:55 Clear 73 22.5 67 19.5 83 83 S 18 30 29.65 1004 10 16.0934 0 0
7:15 am 07:15 Clear 73 22.5 67 19.5 83 83 S 18 30 29.65 1004 10 16.0934 0 0
7:35 am 07:35 Sunny 73 22.6 67 19.5 83 83 S 14 22 29.65 1004 10 16.0934 0 0
7:55 am 07:55 Sunny 72 22.3 67 19.5 84 84 S 14 22 29.66 1004 10 16.0934 0 0
8:15 am 08:15 Sunny 72 22.1 67 19.5 85 85 S 12 19 29.68 1005 10 16.0934 0 0
8:35 am 08:35 Sunny 72 22.3 67 19.5 84 84 S 15 24 29.68 1005 10 16.0934 0 0
8:55 am 08:55 Sunny 73 23 67 19.6 81 81 S 20 31 29.66 1005 10 16.0934 0 0
9:15 am 09:15 Sunny 75 23.8 67 19.5 77 77 S 22 35 29.65 1004 10 16.0934 0 0
9:35 am 09:35 Sunny 76 24.7 67 19.5 73 73 S 28 44 29.64 1004 10 16.0934 0 0
9:55 am 09:55 Sunny 78 25.4 67 19.6 70 70 S 23 37 29.63 1004 10 16.0934 0 0
10:15 am 10:15 Sunny 80 26.5 67 19.6 66 66 S 25 41 29.63 1003 10 16.0934 0 0
10:35 am 10:35 Sunny 81 27.1 67 19.5 63 63 SSW 21 33 29.62 1003 10 16.0934 0 0
10:55 am 10:55 Sunny 82 27.7 67 19.2 60 60 SSW 29 46 29.63 1003 10 16.0934 0 0
11:15 am 11:15 Sunny 84 28.8 66 19.1 56 56 SSW 25 41 29.62 1003 10 16.0934 0 0
11:35 am 11:35 Sunny 85 29.4 66 18.7 53 53 SSW 21 33 29.61 1003 10 16.0934 0 0
11:55 am 11:55 Sunny 86 30 65 18.1 49 49 SSW 20 31 29.62 1003 10 16.0934 0 0
12:15 pm 12:15 Sunny 87 30.8 64 18 46 46 SSW 15 24 29.6 1002 10 16.0934 0 0
12:35 pm 12:35 Sunny 88 31.3 63 17.3 43 43 SW 21 33 29.6 1002 10 16.0934 0 0
12:55 pm 12:55 Sunny 90 32 62 16.7 40 40 SSW 21 33 29.59 1002 10 16.0934 0 0
1:15 pm 13:15 Sunny 91 32.9 60 15.8 36 36 SW 17 28 29.58 1002 10 16.0934 0 0
1:35 pm 13:35 Sunny 92 33.1 59 14.9 33 33 SSW 17 28 29.58 1002 10 16.0934 0 0
1:55 pm 13:55 Sunny 92 33.5 59 14.9 33 33 SW 12 19 29.57 1001 10 16.0934 0 0
2:15 pm 14:15 Sunny 93 34 58 14.5 31 31 SSW 17 28 29.56 1001 10 16.0934 0 0
2:35 pm 14:35 Sunny 94 34.3 57 13.7 29 29 SW 18 30 29.56 1001 10 16.0934 0 0
2:55 pm 14:55 Sunny 94 34.2 57 13.9 29 29 SSW 23 37 29.56 1001 10 16.0934 0 0
3:15 pm 15:15 Sunny 94 34.4 59 15.1 31 31 SW 18 30 29.56 1001 10 16.0934 0 0
3:35 pm 15:35 Sunny 94 34.3 59 14.9 31 31 SSW 23 37 29.55 1001 10 16.0934 0 0
3:55 pm 15:55 Sunny 94 34.5 59 15.1 31 31 SSW 17 28 29.55 1001 10 16.0934 0 0
4:15 pm 16:15 Partly Cloudy 94 34.5 58 14.6 30 30 SW 14 22 29.55 1001 10 16.0934 0 0
4:35 pm 16:35 Partly Cloudy 94 34.5 61 16 33 33 SSW 18 30 29.55 1001 10 16.0934 0 0
4:55 pm 16:55 Mostly Cloudy 93 33.7 63 17.2 37 37 SSW 16 26 29.55 1001 10 16.0934 0 0
5:15 pm 17:15 Partly Cloudy 94 34.5 64 17.6 37 37 S 15 24 29.54 1000 10 16.0934 0 0
5:35 pm 17:35 Mostly Cloudy 91 32.7 66 19 44 44 S 14 22 29.54 1000 10 16.0934 0 0
5:55 pm 17:55 Mostly Cloudy with Nearby Thunderstorms 87 30.7 68 20.1 53 53 S 26 43 29.55 1001 7 11.26538 0 0
6:15 pm 18:15 Mostly Cloudy 77 24.9 71 21.7 82 82 SSW 20 31 29.62 1003 10 16.0934 0 0
6:35 pm 18:35 Partly Cloudy 72 22 66 18.8 82 82 SSE 22 35 29.62 1003 10 16.0934 0 0
6:55 pm 18:55 Cloudy 70 21 66 18.7 87 87 W 7 11 29.65 1004 2.5 4.02335 0.35 8.89
7:15 pm 19:15 Cloudy with Nearby Thunderstorms 68 20.2 65 18.3 89 89 E 13 20 29.68 1005 10 16.0934 0 0
7:35 pm 19:35 Cloudy with Nearby Thunderstorms 70 21.2 65 18.3 84 84 ENE 9 15 29.7 1006 10 16.0934 0 0
7:55 pm 19:55 Cloudy with Thunderstorms 71 21.5 66 19 86 86 N 7 11 29.7 1006 10 16.0934 0 0
8:15 pm 20:15 Cloudy with Thunderstorms 70 21.2 67 19.7 91 91 ENE 9 15 29.74 1007 10 16.0934 0 0
8:35 pm 20:35 Cloudy 69 20.5 67 19.5 94 94 ENE 12 19 29.73 1007 10 16.0934 0 0
8:50 pm 20:50 Cloudy 68 19.9 66 18.9 94 94 NE 16 26 29.74 1007 10 16.0934 0 0
9:15 pm 21:15 Cloudy 66 19.1 66 18.7 98 98 NE 15 24 29.74 1007 10 16.0934 0 0
9:35 pm 21:35 Cloudy 66 18.7 65 18.5 99 99 NE 10 17 29.76 1008 10 16.0934 0 0
9:55 pm 21:55 Cloudy 65 18.6 65 18.5 99 99 NE 13 20 29.76 1008 10 16.0934 0 0
10:15 pm 22:15 Cloudy 66 18.7 65 18.5 99 99 NNE 10 17 29.77 1008 10 16.0934 0 0
10:35 pm 22:35 Cloudy 65 18.5 65 18.2 98 98 ENE 13 20 29.77 1008 10 16.0934 0 0
10:55 pm 22:55 Cloudy 65 18.5 65 18.3 99 99 ENE 9 15 29.78 1008 10 16.0934 0 0
11:15 pm 23:15 Cloudy 65 18.6 65 18.5 99 99 ENE 13 20 29.77 1008 10 16.0934 0 0
11:35 pm 23:35 Cloudy 65 18.5 65 18.2 98 98 ENE 13 20 29.76 1008 10 16.0934 0 0
11:55 pm 23:55 Cloudy 64 18 64 18 100 100 NE 8 13 29.77 1008 10 16.0934 0 0

Powered by AerisWeather